Home   Weather   Huntington Beach   Past weeks

Flag for USA Past Weather in Huntington Beach, California, USA — Yesterday and Last 2 Weeks

62 °F


Feels Like: 62 °F
Forecast: 63 / 83 °F
Wind: No wind

Location: John Wayne Airport-Orange County Airport

Current Time: Oct 21, 2016 at 8:04:12 AM

Latest Report: Oct 21, 2016 at 6:53 AM

Visibility: 10 mi

Pressure: 29.87 "Hg

Humidity: 50%

Dew Point: 43 °F

Location of Huntington BeachLocation

Past Weather in Huntington Beach — Graph


Huntington Beach Temperature Yesterday

Maximum temperature yesterday: 95 °F (at 1:53 PM)
Minimum temperature yesterday: 61 °F (at 4:53 AM)
Average temperature yesterday: 77 °F

High & Low Weather Summary for the Past Weeks

High95 °F (Oct 20, 1:53 PM)97% (Oct 17, 6:53 AM)30.09 "Hg (Oct 17, 6:53 AM)
Low57 °F (Oct 13, 4:53 AM)10% (Oct 20, 12:53 PM)29.81 "Hg (Oct 7, 4:53 PM)
Average69 °F65%29.95 "Hg
* Reported Oct 6 6:53 AM — Oct 21 6:53 AM, Huntington Beach, Weather by CustomWeather, © 2016

Note: Actual official high and low records may vary slightly from our data, if they occured in-between our weather recording intervals... More about our weather records


Huntington Beach Weather History for the Previous 24 Hours

Scroll right to see more
Time TempWeatherWind HumidityBarometerVisibility
6:53 AM
Fri, Oct 21
62 °FClear.No wind50%29.87 "Hg10 mi
5:53 AM63 °FClear.No wind48%29.86 "Hg10 mi
4:53 AM61 °FClear.3 mph54%29.85 "Hg10 mi
3:53 AM63 °FClear.No wind52%29.85 "Hg10 mi
2:53 AM64 °FClear.No wind49%29.85 "Hg10 mi
1:53 AM66 °FClear.No wind43%29.86 "Hg10 mi
12:53 AM67 °FClear.No wind37%29.86 "Hg10 mi
11:53 PM
Thu, Oct 20
69 °FClear.No wind36%29.86 "Hg10 mi
10:53 PM71 °FClear.No wind34%29.87 "Hg10 mi
9:53 PM74 °FClear.No wind26%29.87 "Hg10 mi
8:53 PM78 °FClear.3 mph22%29.87 "Hg10 mi
7:53 PM80 °FClear.No wind21%29.87 "Hg10 mi
6:53 PM83 °FClear.No wind17%29.86 "Hg10 mi
5:53 PM87 °FSunny.6 mph14%29.85 "Hg10 mi
4:53 PM91 °FSunny.6 mph10%29.85 "Hg10 mi
3:53 PM92 °FSunny.9 mph11%29.85 "Hg10 mi
2:53 PM94 °FSunny.7 mph13%29.86 "Hg10 mi
1:53 PM95 °FPassing clouds.7 mph10%29.88 "Hg10 mi
12:53 PM93 °FPassing clouds.7 mph10%29.91 "Hg10 mi
11:53 AM90 °FPassing clouds.6 mph16%29.94 "Hg10 mi
10:53 AM86 °FPassing clouds.3 mph23%29.96 "Hg10 mi
9:53 AM79 °FPassing clouds.No wind41%29.97 "Hg10 mi
8:53 AM69 °FPassing clouds.No wind53%29.97 "Hg10 mi
Weather by CustomWeather, © 2016

See weather overviewHow to use our weather pages